Weather History for Cross City, FL

Change the Weather History Date:

Wednesday, April 2, 2014

  Actual Average Record
Temperature  
Mean Temperature 64 °F 65 °F  
Max Temperature 81 °F 78 °F 87 °F (2008)
Min Temperature 46 °F 52 °F 37 °F (2001)
Degree Days  
Heating Degree Days 1 3  
Month to date heating degree days 4 6  
Since 1 July heating degree days 1164 1261  
Cooling Degree Days 0 3  
Month to date cooling degree days 0 5  
Year to date cooling degree days 52 79  
Growing Degree Days 14 (Base 50)    
Moisture  
Dew Point 54 °F    
Average Humidity 69    
Maximum Humidity 93    
Minimum Humidity 45    
Precipitation  
Precipitation 0.00 in 0.14 in 0.37 in (2005)
Month to date precipitation 0.00 0.29  
Year to date precipitation 15.11 11.81  
Sea Level Pressure  
Sea Level Pressure 30.16 in    
Wind  
Wind Speed 4 mph (SW)    
Max Wind Speed 13 mph    
Max Gust Speed 27 mph    
T = Trace of Precipitation, MM = Missing Value Source: NWS Daily Summary

Daily Weather History Graph

Daily Weather History Graph

Search for Another Location

Airport:

Trip Planner

Search our weather history database for the weather conditions in past years. The results will help you decide how hot, cold, wet, or windy it might be!

Date:

Astronomy

Apr. 02, 2014 Rise Set
Actual Time 7:20 AM EDT 7:51 PM EDT
Civil Twilight 6:56 AM EDT 8:15 PM EDT
Nautical Twilight 6:28 AM EDT 8:43 PM EDT
Astronomical Twilight 6:00 AM EDT 9:12 PM EDT
Moon 9:16 AM EDT (4/2) 10:59 PM EDT (4/2)
Length of Visible Light 13h 18m
Length of Day
12h 30m
Waxing Crescent, 10% of the Moon is Illuminated
Apr 2
Waxing Crescent
Apr 7
First Quarter
Apr 15
Full
Apr 22
Last Quarter
Apr 29
New

Hourly Weather History & Observations

Time (EDT) Temp. Heat Index Dew Point Humidity Pressure Visibility Wind Dir Wind Speed Gust Speed Precip Events Conditions
12:53 AM 51.1 °F - 48.0 °F 89% 30.16 in - Calm Calm - N/A   Unknown
1:53 AM 51.1 °F - 48.0 °F 89% 30.15 in - North - - N/A   Unknown
2:53 AM 51.1 °F - 48.0 °F 89% 30.14 in - North - - N/A   Unknown
3:53 AM 51.1 °F - 46.9 °F 86% 30.14 in - Calm Calm - N/A   Unknown
4:53 AM 48.0 °F - 46.0 °F 93% 30.14 in - Calm Calm - N/A   Unknown
5:53 AM 46.9 °F - 45.0 °F 93% 30.15 in - Calm Calm - N/A   Unknown
6:53 AM 46.0 °F - 45.0 °F 96% 30.16 in - Calm Calm - N/A   Unknown
8:53 AM 59.0 °F - 53.1 °F 81% 30.18 in - Calm Calm - N/A   Unknown
9:53 AM 68.0 °F - 54.0 °F 61% 30.19 in - Variable 3.5 mph - N/A   Unknown
10:53 AM 72.0 °F - 59.0 °F 64% 30.20 in - South 6.9 mph - N/A   Unknown
11:53 AM 75.9 °F - 61.0 °F 60% 30.19 in - South 6.9 mph 23.0 mph N/A   Unknown
12:53 PM 80.1 °F 80.9 °F 60.1 °F 50% 30.18 in - SW 10.4 mph 18.4 mph N/A   Unknown
1:53 PM 80.1 °F 80.9 °F 60.1 °F 50% 30.17 in - SSW 8.1 mph 17.3 mph N/A   Unknown
2:53 PM 80.1 °F 80.7 °F 59.0 °F 48% 30.16 in - SW 12.7 mph 20.7 mph N/A   Unknown
3:53 PM 79.0 °F - 55.9 °F 45% 30.14 in - SSW 10.4 mph 19.6 mph N/A   Unknown
4:53 PM 79.0 °F - 55.9 °F 45% 30.14 in - SW 10.4 mph - N/A   Unknown
5:53 PM 77.0 °F - 57.0 °F 50% 30.14 in - WSW 9.2 mph - N/A   Unknown
6:53 PM 75.9 °F - 57.0 °F 52% 30.14 in - WNW 8.1 mph - N/A   Unknown
7:53 PM 70.0 °F - 57.9 °F 65% 30.14 in - West 4.6 mph - N/A   Unknown
8:53 PM 66.9 °F - 59.0 °F 76% 30.14 in - West 4.6 mph - 0.01 in   Unknown
9:53 PM 63.0 °F - 57.0 °F 81% 30.15 in - Calm Calm - N/A   Unknown
10:53 PM 60.1 °F - 55.9 °F 86% 30.15 in - Calm Calm - N/A   Unknown
11:53 PM 59.0 °F - 55.9 °F 90% 30.15 in - Calm Calm - N/A   Unknown